Monte Scuro, Italy

2:24 PM CEST on July 23, 2017 (GMT +0200)
Monte Scuro

Weather History for LIBQ - January, 2013

Change the Weather History Date:

Saturday, January 19, 2013

  Actual Average Record
Temperature  
Mean Temperature 32 °F -  
Max Temperature 37 °F 36 °F 50 °F (2007)
Min Temperature 27 °F 28 °F 15 °F (2016)
Degree Days  
Heating Degree Days 33    
Moisture  
Dew Point 31 °F    
Average Humidity 100    
Maximum Humidity 100    
Minimum Humidity 93    
Precipitation  
Precipitation 0.04 in 0.12 in - ()
Sea Level Pressure  
Sea Level Pressure 29.51 in    
Wind  
Wind Speed 14 mph ()    
Max Wind Speed 17 mph    
Max Gust Speed -    
Visibility 0.0 miles    
Events Fog , Rain , Snow , Thunderstorm    
Averages and records for this station are not official NWS values.
T = Trace of Precipitation, MM = Missing Value Source: Averaged Metar Reports

Daily Weather History Graph

Daily Weather History Graph

Search for Another Location

Airport or City:

Trip Planner

Search our weather history database for the weather conditions in past years. The results will help you decide how hot, cold, wet, or windy it might be!

Date:

Astronomy

Jan. 19, 2013 Rise Set
Actual Time 7:10 AM CET 4:59 PM CET
Civil Twilight 6:41 AM CET 5:29 PM CET
Nautical Twilight 6:08 AM CET 6:01 PM CET
Astronomical Twilight 5:36 AM CET 6:33 PM CET
Moon 11:15 AM CET (1/19) 12:28 AM CET (1/19)
Length of Visible Light 10h 47m
Length of Day
9h 49m
First Quarter, 54% of the Moon is Illuminated
Jan 19
First Quarter
Jan 27
Full
Feb 3
Last Quarter
Feb 10
New
Feb 17
First Quarter

Hourly Weather History & Observations

Time (CET) Temp. Windchill Dew Point Humidity Pressure Visibility Wind Dir Wind Speed Gust Speed Precip Events Conditions
12:31 AM 28.4 °F 16.2 °F 28.4 °F 100% 29.36 in 0.0 mi West 17.3 mph - N/A Fog , Snow , Thunderstorm Light Thunderstorms and Snow
12:55 AM 28.4 °F 16.2 °F 28.4 °F 100% 29.39 in 0.0 mi WSW 17.3 mph - N/A Fog , Snow , Thunderstorm Light Thunderstorms and Snow
1:00 AM 28 °F - 28 °F 100%  in 0 mi WSW 17.3 mph - - Rain , Thunderstorm Light Freezing Rain
1:55 AM 28.4 °F 16.2 °F 28.4 °F 100% 29.39 in 0.0 mi WSW 17.3 mph - N/A Fog , Snow , Thunderstorm Light Thunderstorms and Snow
2:55 AM 28.4 °F 16.2 °F 28.4 °F 100% 29.42 in 0.0 mi West 17.3 mph - N/A Fog , Snow , Thunderstorm Light Thunderstorms and Snow
3:55 AM 28.4 °F 16.2 °F 28.4 °F 100% 29.44 in - West 17.3 mph - N/A Fog Light Freezing Fog
4:00 AM 28 °F - 28 °F 100%  in 0 mi West 17.3 mph - - Snow Light Snow
4:55 AM 28.4 °F 16.2 °F 28.4 °F 100% 29.44 in - West 17.3 mph - N/A Fog Light Freezing Fog
5:55 AM 28.4 °F 17.0 °F 28.4 °F 100% 29.47 in 0.0 mi WSW 15.0 mph - N/A Fog Light Freezing Fog
6:55 AM 28.4 °F 16.2 °F 28.4 °F 100% 29.47 in 0.2 mi WSW 17.3 mph - N/A Fog Light Freezing Fog
7:00 AM 28 °F - 28 °F 100%  in 0 mi WSW 17.3 mph - - Fog Heavy Fog
7:55 AM 28.4 °F 16.2 °F 28.4 °F 100% 29.50 in 0.2 mi West 17.3 mph - N/A Fog Light Freezing Fog
8:55 AM 28.4 °F 16.2 °F 28.4 °F 100% 29.50 in 0.0 mi West 17.3 mph - N/A Fog Light Freezing Fog
9:55 AM 30.2 °F 18.5 °F 28.4 °F 93% 29.50 in 0.0 mi SW 17.3 mph - N/A Fog Light Freezing Fog
10:00 AM 29 °F - 29 °F 100%  in 0 mi SW 17.3 mph - - Fog Heavy Fog
10:55 AM 30.2 °F 20.8 °F 30.2 °F 100% 29.53 in 0.0 mi West 11.5 mph - N/A Fog Light Freezing Fog
11:55 AM 30.2 °F 20.8 °F 30.2 °F 100% 29.53 in 0.0 mi West 11.5 mph - N/A Fog Light Freezing Fog
12:55 PM 30.2 °F 20.8 °F 30.2 °F 100% 29.53 in 0.0 mi WSW 11.5 mph - N/A Fog Light Freezing Fog
1:00 PM 30 °F - 30 °F 100%  in 0 mi WSW 11.5 mph - - Fog Heavy Fog
1:55 PM 30.2 °F 20.8 °F 30.2 °F 100% 29.53 in 0.0 mi WSW 11.5 mph - N/A Fog Light Freezing Fog
2:55 PM 30.2 °F 20.8 °F 30.2 °F 100% 29.53 in 0.0 mi WSW 11.5 mph - N/A Fog Light Freezing Fog
3:55 PM 32.0 °F 23.0 °F 32.0 °F 100% 29.56 in 0.0 mi West 11.5 mph - N/A Fog Fog
4:00 PM 32 °F - 32 °F 100%  in 0 mi West 11.5 mph - - Fog Heavy Fog
4:55 PM 32.0 °F 23.0 °F 32.0 °F 100% 29.56 in 0.0 mi West 11.5 mph - N/A Fog Fog
5:55 PM 35.6 °F 27.5 °F 35.6 °F 100% 29.56 in 0.0 mi West 11.5 mph - N/A Fog , Rain Light Rain
6:55 PM 35.6 °F 27.5 °F 35.6 °F 100% 29.59 in 0.0 mi WSW 11.5 mph - N/A Fog , Rain Light Rain
7:00 PM 36 °F - 36 °F 98%  in 0 mi WSW 11.5 mph - - Rain Light Rain
7:55 PM 37.4 °F 27.8 °F 37.4 °F 100% 29.59 in 0.0 mi West 17.3 mph - N/A Fog , Rain Light Rain
8:55 PM 37.4 °F 27.8 °F 37.4 °F 100% 29.59 in 0.0 mi West 17.3 mph - N/A Fog , Rain Light Rain
9:55 PM 37.4 °F 27.8 °F 37.4 °F 100% 29.59 in 0.0 mi South 17.3 mph - N/A Fog Fog
10:00 PM 37 °F - 37 °F 100%  in 0 mi South 17.3 mph - - Fog Heavy Fog
10:55 PM 37.4 °F 29.8 °F 37.4 °F 100% 29.62 in 0.0 mi South 11.5 mph - N/A Fog Fog
11:55 PM 37.4 °F 29.8 °F 37.4 °F 100% 29.62 in 0.0 mi South 11.5 mph - N/A Fog Fog